Tracking 29088 objects as of 14-Jul-2024
HD Live streaming from Space Station
objects crossing your sky now

COSMOS 1275 DEB

Track COSMOS 1275 DEB now!
10-day predictions


NORAD ID: 42181
Int'l Code: 1981-053SV
Perigee: 877.5 km
Apogee: 984.6 km
Inclination: 82.9 °
Period: 103.5 minutes
Semi major axis: 7302 km
RCS: Unknown
Launch date: June 4, 1981
Source: Commonwealth of Independent States (former USSR) (CIS)
Launch site: PLESETSK MISSILE AND SPACE COMPLEX (PKMTR)

Note: This is SATELLITE DEBRIS
Your satellite tracking list
Your tracking list is empty




NASA's NSSDC Master Catalog

Two Line Element Set (TLE):
1 42181U 81053SV  24195.57123458  .00000807  00000-0  61421-3 0  9991
2 42181  82.9010 251.5076 0073290 329.7373  29.9568 13.91349651980962
Source of the keplerian elements: AFSPC